Starlink 31291

operational
NORAD ID: 59096 Int'l Des: 2024-041 Owner: SPXS Country: US Constellation: starlink
LEOCIRCULAR

关于 Starlink 31291

正在加载描述...

实时位置

正在加载3D地球...

即将过境

高度历史

Altitude vs Time

uPlot chart will show altitude changes over time

两行轨道根数

1 59096U 24041Y 25351.24676724 -.00002361 00000-0 -76301-4 0 9999
2 59096 43.0057 56.2332 0001651 283.3953 76.6715 15.27577649101666
Epoch: Dec 17, 2025 • Age: 7 hours

当前状态

高度 488.2 km
速度 7.62 km/s
星下点 -23.28°S, 21.63°W
发射日期 Feb 29, 2024
运行时间 1.7 years
类型 internet

技术详情

分类 Payload
质量 730.00 kg
干质量 700.00 kg
总质量 730.00 kg
长度 0.30 m
直径 4.10 m
跨度 29.00 m
形状 Box + pan
制造商 SPXS
平台类型 Starlink V2M
阶段状态 In Orbit
所有者/国家 SPXS/US

大型星座

Loading constellations...